START_TIME,STEP,MOV.,M29,t_acc.,H22,t_acc.,H26,t_acc.,H30,t_acc.
1979-08-07 12:00:30.390 ,0,0,0.,24.0,0.,24.0,0.,24.0,0.,24.0
1979-08-07 12:00:54.390 ,1,1,0.,24.0,0.,24.0,0.,24.0,0.,24.0
1979-08-07 12:01:18.390 ,1,0,0.,24.0,0.,24.0,0.,24.0,0.,24.0
1979-08-07 12:01:42.390 ,2,1,0.,24.0,0.,24.0,0.,24.0,0.,24.0
1979-08-07 12:02:06.390 ,2,0,0.,24.0,0.,24.0,0.,24.0,0.,24.0
1979-08-07 12:02:30.390 ,3,1,0.,24.0,0.,24.0,0.,24.0,0.,24.0
1979-08-07 12:02:54.390 ,3,0,0.,24.0,0.,24.0,0.,24.0,0.,24.0
1979-08-07 12:03:18.390 ,4,1,0.,24.0,0.,24.0,0.,24.0,0.,24.0
1979-08-07 12:03:42.390 ,4,0,0.,24.0,0.,24.0,0.,24.0,0.,24.0
1979-08-07 12:05:18.390 ,6,0,0.,24.0,0.,24.0,0.,24.0,0.,24.0
1979-08-07 12:05:42.390 ,7,1,0.,24.0,0.,24.0,0.,24.0,0.,24.0
1979-08-07 12:06:06.390 ,7,0,0.,24.0,0.,24.0,0.,24.0,0.,24.0
1979-08-07 12:06:30.390 ,7,1,0.,24.0,0.,24.0,0.,24.0,0.,24.0
1979-08-07 12:06:54.390 ,7,0,0.,24.0,0.,24.0,0.,24.0,0.,24.0
1979-08-07 12:07:18.390 ,6,1,0.,24.0,0.,24.0,0.,24.0,0.,24.0
1979-08-07 12:07:42.390 ,6,0,0.,24.0,0.,24.0,0.,24.0,0.,24.0
1979-08-07 12:08:06.390 ,5,1,0.,24.0,0.,24.0,0.,24.0,0.,24.0
1979-08-07 12:08:30.390 ,5,0,0.,24.0,0.,24.0,0.,24.0,0.,24.0
1979-08-07 12:08:54.390 ,4,1,0.,24.0,0.,24.0,0.,24.0,0.,24.0
1979-08-07 12:09:18.390 ,4,0,0.,24.0,0.,24.0,0.,24.0,0.,24.0
1979-08-07 12:09:42.390 ,3,1,0.,24.0,0.,24.0,0.,24.0,0.,24.0
1979-08-07 12:10:06.390 ,3,0,0.,24.0,0.,24.0,0.,24.0,0.,24.0
1979-08-07 12:10:30.390 ,2,1,0.,24.0,0.,24.0,0.,24.0,0.,24.0
1979-08-07 12:10:54.390 ,2,0,0.,24.0,0.,24.0,0.,24.0,0.,24.0
1979-08-07 12:11:18.390 ,1,1,0.,24.0,0.,24.0,0.,24.0,0.,24.0
1979-08-07 12:11:42.390 ,1,0,0.,24.0,0.,24.0,0.,24.0,0.,24.0
1979-08-07 12:12:06.390 ,0,1,0.,24.0,0.,24.0,0.,24.0,0.,24.0
1979-08-07 12:12:30.390 ,0,0,0.,24.0,0.,24.0,0.,24.0,0.,24.0
1979-08-07 12:12:54.390 ,0,1,0.,24.0,0.,24.0,0.,24.0,0.,24.0
1979-08-07 12:13:18.390 ,0,0,0.,24.0,0.,24.0,0.,24.0,0.,24.0
1979-08-07 12:13:42.390 ,1,1,0.,24.0,0.,24.0,0.,24.0,0.,24.0
1979-08-07 12:14:30.390 ,2,1,0.,24.0,0.,24.0,0.,24.0,0.,24.0
1979-08-07 12:14:54.390 ,2,0,0.,24.0,0.,24.0,0.,24.0,0.,24.0
1979-08-07 12:15:18.390 ,3,1,0.,24.0,0.,24.0,0.,24.0,0.,24.0
1979-08-07 12:15:42.390 ,3,0,0.,24.0,0.,24.0,0.,24.0,0.,24.0
1979-08-07 12:16:06.390 ,4,1,0.,24.0,0.,24.0,0.,24.0,0.,24.0
1979-08-07 12:16:30.390 ,4,0,0.,24.0,0.,24.0,0.,24.0,0.,24.0
1979-08-07 12:16:54.390 ,5,1,0.,24.0,0.,24.0,0.,24.0,0.,24.0
1979-08-07 12:17:18.390 ,5,0,0.,24.0,0.,24.0,0.,24.0,0.,24.0
1979-08-07 12:17:42.390 ,6,1,0.,24.0,0.,24.0,0.,24.0,0.,24.0
1979-08-07 12:18:06.390 ,6,0,0.,24.0,0.,24.0,0.,24.0,0.,24.0
1979-08-07 12:18:30.390 ,7,0,0.,24.0,0.,24.0,0.,24.0,0.,24.0
1979-08-07 12:18:54.390 ,7,0,0.,24.0,0.,24.0,0.,24.0,0.,24.0
1979-08-07 12:19:18.390 ,5,1,0.,24.0,0.,24.0,0.,24.0,0.,24.0
1979-08-07 12:19:42.390 ,1,1,0.,24.0,0.,24.0,0.,24.0,0.,24.0
1979-08-07 12:20:54.390 ,5,1,0.,24.0,0.,24.0,0.,24.0,0.,24.0
1979-08-07 12:21:18.390 ,1,1,0.,24.0,0.,24.0,0.,24.0,0.,24.0
1979-08-07 12:21:42.390 ,2,1,0.,24.0,0.,24.0,0.,24.0,0.,24.0
1979-08-07 12:22:06.390 ,6,1,1.,24.0,0.,24.0,0.,24.0,0.,24.0
1979-08-07 12:25:42.390 ,0,0,0.,24.0,0.,24.0,0.,24.0,0.,24.0
1979-08-07 12:26:06.390 ,1,1,0.,24.0,0.,24.0,0.,24.0,0.,24.0
1979-08-07 13:04:21.390 ,0,0,,0,,0,,0,,0
1979-08-07 13:04:30.390 ,0,0,0.,24.0,0.,24.0,0.,24.0,0.,24.0
1979-08-07 13:04:30.390 ,0,0,0.,24.0,0.,24.0,0.,24.0,0.,24.0
1979-08-07 13:04:30.390 ,0,0,0.,24.0,0.,24.0,0.,24.0,0.,24.0
1979-08-07 13:04:54.390 ,5,1,0.,24.0,0.,24.0,0.,24.0,0.,24.0
1979-08-07 13:05:18.390 ,5,0,0.,24.0,0.,24.0,0.,24.0,0.,24.0
1979-08-07 13:06:06.390 ,6,0,0.,24.0,0.,24.0,0.,24.0,0.,24.0
1979-08-07 13:06:30.390 ,7,0,0.,24.0,0.,24.0,0.,24.0,0.,24.0
1979-08-07 13:06:54.390 ,7,0,0.,24.0,0.,24.0,0.,24.0,0.,24.0
1979-08-07 13:07:18.390 ,5,1,0.,24.0,0.,24.0,0.,24.0,0.,24.0
1979-08-07 13:07:42.390 ,1,1,0.,24.0,0.,24.0,0.,24.0,0.,24.0
1979-08-07 13:08:06.390 ,2,1,0.,24.0,0.,24.0,0.,24.0,0.,24.0
1979-08-07 13:08:30.390 ,6,1,0.,24.0,0.,24.0,0.,24.0,0.,24.0
1979-08-07 13:08:54.390 ,5,1,0.,24.0,0.,24.0,0.,24.0,0.,24.0
1979-08-07 13:09:18.390 ,1,1,0.,24.0,0.,24.0,0.,24.0,0.,24.0
1979-08-07 13:09:42.390 ,2,1,0.,24.0,0.,24.0,0.,24.0,0.,24.0
1979-08-07 13:10:06.390 ,6,1,0.,24.0,0.,24.0,0.,24.0,0.,24.0
1979-08-07 13:10:30.390 ,5,1,1.,24.0,0.,24.0,0.,24.0,0.,24.0
1979-08-07 13:10:54.390 ,1,1,0.,24.0,0.,24.0,0.,24.0,0.,24.0
1979-08-07 13:10:54.390 ,1,1,0.,24.0,0.,24.0,0.,24.0,0.,24.0
1979-08-07 13:11:18.390 ,2,1,0.,24.0,0.,24.0,0.,24.0,0.,24.0
1979-08-07 13:11:42.390 ,6,1,0.,24.0,0.,24.0,0.,24.0,0.,24.0
1979-08-07 13:12:06.390 ,5,1,0.,24.0,0.,24.0,0.,24.0,0.,24.0
1979-08-07 13:12:30.390 ,1,1,0.,24.0,0.,24.0,0.,24.0,0.,24.0
1979-08-07 13:12:54.390 ,2,1,0.,24.0,0.,24.0,0.,24.0,0.,24.0
1979-08-07 13:13:18.390 ,6,1,0.,24.0,0.,24.0,0.,24.0,0.,24.0
1979-08-07 13:13:18.390 ,6,1,0.,24.0,0.,24.0,0.,24.0,0.,24.0
1979-08-07 13:13:42.390 ,5,1,0.,24.0,0.,24.0,0.,24.0,0.,24.0
1979-08-07 13:14:06.390 ,1,1,0.,24.0,0.,24.0,0.,24.0,0.,24.0
1979-08-07 13:14:30.390 ,2,1,0.,24.0,0.,24.0,0.,24.0,0.,24.0
1979-08-07 13:14:54.390 ,6,1,0.,24.0,0.,24.0,0.,24.0,0.,24.0
1979-08-07 13:15:18.390 ,5,1,0.,24.0,0.,24.0,0.,24.0,0.,24.0
1979-08-07 13:15:42.390 ,1,1,0.,24.0,0.,24.0,0.,24.0,0.,24.0
1979-08-07 13:16:06.390 ,2,1,0.,24.0,0.,24.0,0.,24.0,0.,24.0
1979-08-07 13:16:30.390 ,6,1,0.,24.0,0.,24.0,0.,24.0,0.,24.0
1979-08-07 13:16:54.390 ,5,1,0.,24.0,0.,24.0,0.,24.0,0.,24.0
1979-08-07 13:17:18.390 ,1,1,0.,24.0,0.,24.0,0.,24.0,0.,24.0
1979-08-07 13:17:42.390 ,0,0,0.,24.0,0.,24.0,0.,24.0,0.,24.0
1979-08-07 13:18:06.390 ,0,0,0.,24.0,0.,24.0,0.,24.0,0.,24.0
1979-08-07 13:18:30.390 ,5,1,0.,24.0,0.,24.0,0.,24.0,0.,24.0
1979-08-07 13:18:54.390 ,5,0,0.,24.0,0.,24.0,0.,24.0,0.,24.0
1979-08-07 13:19:18.390 ,4,1,0.,24.0,0.,24.0,0.,24.0,0.,24.0
1979-08-07 13:19:42.390 ,4,0,0.,24.0,0.,24.0,0.,24.0,0.,24.0
1979-08-07 13:19:42.390 ,0,0,0.,24.0,0.,24.0,0.,24.0,0.,24.0
1979-08-07 13:19:42.390 ,0,0,0.,24.0,0.,24.0,0.,24.0,0.,24.0
1979-08-07 13:20:06.390 ,3,1,0.,24.0,0.,24.0,0.,24.0,0.,24.0
1979-08-07 13:20:30.390 ,3,0,0.,24.0,0.,24.0,0.,24.0,0.,24.0
1979-08-07 13:20:54.390 ,2,1,0.,24.0,0.,24.0,0.,24.0,0.,24.0
1979-08-07 13:21:18.390 ,2,0,1.,24.0,0.,24.0,0.,24.0,0.,24.0
1979-08-07 13:21:42.390 ,1,1,0.,24.0,0.,24.0,0.,24.0,0.,24.0
1979-08-07 13:22:06.390 ,1,0,0.,24.0,0.,24.0,0.,24.0,0.,24.0
1979-08-07 13:22:30.390 ,0,1,0.,24.0,0.,24.0,0.,24.0,0.,24.0
1979-08-07 13:22:54.390 ,0,0,0.,24.0,0.,24.0,0.,24.0,0.,24.0
1979-08-07 13:23:18.390 ,0,1,0.,24.0,0.,24.0,0.,24.0,0.,24.0
1979-08-07 13:23:42.390 ,0,0,0.,24.0,0.,24.0,0.,24.0,0.,24.0
1979-08-07 13:24:06.390 ,1,1,0.,24.0,0.,24.0,0.,24.0,0.,24.0
1979-08-07 13:24:30.390 ,1,0,0.,24.0,0.,24.0,0.,24.0,0.,24.0
1979-08-07 13:24:54.390 ,2,1,2.,24.0,0.,24.0,0.,24.0,0.,24.0
1979-08-07 13:25:18.390 ,2,0,0.,24.0,0.,24.0,0.,24.0,0.,24.0
1979-08-07 13:25:42.390 ,3,1,0.,24.0,0.,24.0,0.,24.0,0.,24.0
1979-08-07 13:26:06.390 ,3,0,0.,24.0,0.,24.0,0.,24.0,0.,24.0
1979-08-07 13:26:30.390 ,4,1,0.,24.0,0.,24.0,0.,24.0,0.,24.0
1979-08-07 13:26:54.390 ,4,0,0.,24.0,0.,24.0,0.,24.0,0.,24.0
1979-08-07 13:26:54.390 ,0,0,0.,24.0,0.,24.0,0.,24.0,0.,24.0
1979-08-07 13:27:18.390 ,5,1,0.,24.0,0.,24.0,0.,24.0,1.,24.0
1979-08-07 13:27:42.390 ,5,0,0.,24.0,0.,24.0,0.,24.0,0.,24.0
1979-08-07 13:28:06.390 ,6,1,0.,24.0,0.,24.0,0.,24.0,0.,24.0
1979-08-07 13:28:30.390 ,6,0,0.,24.0,0.,24.0,0.,24.0,0.,24.0
1979-08-07 13:28:54.390 ,7,1,0.,24.0,0.,24.0,0.,24.0,0.,24.0
1979-08-07 13:29:18.390 ,7,0,0.,24.0,0.,24.0,0.,24.0,0.,24.0
1979-08-07 13:29:42.390 ,7,1,0.,24.0,0.,24.0,0.,24.0,0.,24.0
1979-08-07 13:30:06.390 ,7,0,0.,24.0,0.,24.0,0.,24.0,0.,24.0
1979-08-07 13:30:30.390 ,6,1,1.,24.0,0.,24.0,0.,24.0,0.,24.0
1979-08-07 13:30:54.390 ,6,0,0.,24.0,0.,24.0,0.,24.0,0.,24.0
1979-08-07 13:31:18.390 ,5,1,0.,24.0,0.,24.0,0.,24.0,0.,24.0
1979-08-07 13:31:42.390 ,5,0,0.,24.0,0.,24.0,0.,24.0,0.,24.0
1979-08-07 13:32:06.390 ,4,1,0.,24.0,0.,24.0,0.,24.0,0.,24.0
1979-08-07 13:32:30.390 ,4,0,0.,24.0,0.,24.0,0.,24.0,0.,24.0
1979-08-07 13:32:54.390 ,3,1,0.,24.0,0.,24.0,0.,24.0,0.,24.0
1979-08-07 13:33:18.390 ,3,0,0.,24.0,0.,24.0,0.,24.0,0.,24.0
1979-08-07 13:33:42.390 ,2,1,0.,24.0,0.,24.0,0.,24.0,0.,24.0
1979-08-07 13:34:06.390 ,2,0,0.,24.0,0.,24.0,0.,24.0,0.,24.0
1979-08-07 13:34:30.390 ,1,1,0.,24.0,0.,24.0,0.,24.0,0.,24.0
1979-08-07 13:34:54.390 ,1,0,0.,24.0,0.,24.0,0.,24.0,0.,24.0
1979-08-07 13:35:18.390 ,0,1,0.,24.0,0.,24.0,0.,24.0,0.,24.0
1979-08-07 13:35:42.390 ,0,0,0.,24.0,0.,24.0,0.,24.0,0.,24.0
1979-08-07 13:36:06.390 ,0,1,0.,24.0,0.,24.0,0.,24.0,0.,24.0
1979-08-07 13:36:30.390 ,0,0,0.,24.0,0.,24.0,0.,24.0,0.,24.0
1979-08-07 13:36:54.390 ,1,1,0.,24.0,0.,24.0,0.,24.0,0.,24.0
1979-08-07 13:37:18.390 ,1,0,0.,24.0,0.,24.0,0.,24.0,0.,24.0
1979-08-07 13:37:42.390 ,2,1,0.,24.0,0.,24.0,0.,24.0,0.,24.0
1979-08-07 13:38:06.390 ,2,0,0.,24.0,0.,24.0,0.,24.0,0.,24.0
1979-08-07 13:38:30.390 ,3,1,0.,24.0,0.,24.0,0.,24.0,0.,24.0
1979-08-07 13:38:54.390 ,3,0,0.,24.0,0.,24.0,0.,24.0,0.,24.0
1979-08-07 13:39:18.390 ,4,1,0.,24.0,0.,24.0,0.,24.0,0.,24.0
1979-08-07 13:39:42.390 ,4,0,0.,24.0,0.,24.0,0.,24.0,0.,24.0
1979-08-07 13:40:06.390 ,5,1,0.,24.0,0.,24.0,0.,24.0,0.,24.0
1979-08-07 13:40:30.390 ,5,0,0.,24.0,0.,24.0,0.,24.0,0.,24.0
1979-08-07 13:40:54.390 ,6,0,,0,,0,,0,,0
1979-08-07 13:41:18.390 ,6,0,0.,24.0,0.,24.0,0.,24.0,0.,24.0
1979-08-07 13:41:42.390 ,7,1,0.,24.0,0.,24.0,0.,24.0,0.,24.0
1979-08-07 13:42:06.390 ,7,0,0.,24.0,0.,24.0,0.,24.0,0.,24.0
1979-08-07 13:42:30.390 ,7,1,0.,24.0,0.,24.0,0.,24.0,0.,24.0
1979-08-07 13:42:54.390 ,7,0,1.,24.0,0.,24.0,0.,24.0,0.,24.0
1979-08-07 13:43:18.390 ,6,1,0.,24.0,0.,24.0,0.,24.0,0.,24.0
1979-08-07 13:43:42.390 ,6,0,0.,24.0,0.,24.0,0.,24.0,0.,24.0
1979-08-07 13:44:06.390 ,5,1,0.,24.0,0.,24.0,0.,24.0,0.,24.0
1979-08-07 13:44:30.390 ,5,0,0.,24.0,0.,24.0,0.,24.0,0.,24.0
1979-08-07 13:44:54.390 ,4,1,0.,24.0,0.,24.0,0.,24.0,0.,24.0
1979-08-07 13:45:18.390 ,4,0,0.,24.0,0.,24.0,0.,24.0,0.,24.0
1979-08-07 13:45:42.390 ,3,1,0.,24.0,0.,24.0,0.,24.0,0.,24.0
1979-08-07 13:46:06.390 ,3,0,0.,24.0,0.,24.0,0.,24.0,0.,24.0
1979-08-07 13:46:30.390 ,2,1,0.,24.0,0.,24.0,0.,24.0,0.,24.0
1979-08-07 13:46:54.390 ,2,0,0.,24.0,0.,24.0,0.,24.0,0.,24.0
1979-08-07 13:47:18.390 ,1,1,0.,24.0,0.,24.0,0.,24.0,0.,24.0
1979-08-07 13:47:42.390 ,1,0,0.,24.0,0.,24.0,0.,24.0,0.,24.0
1979-08-07 13:48:06.390 ,0,0,,0,,0,,0,,0
1979-08-07 13:48:30.390 ,0,0,0.,24.0,0.,24.0,0.,24.0,0.,24.0
1979-08-07 13:48:54.390 ,0,1,0.,24.0,0.,24.0,0.,24.0,0.,24.0
1979-08-07 13:49:18.390 ,0,0,0.,24.0,0.,24.0,0.,24.0,0.,24.0
1979-08-07 13:49:42.390 ,1,1,0.,24.0,0.,24.0,0.,24.0,0.,24.0
1979-08-07 13:50:06.390 ,1,0,0.,24.0,0.,24.0,0.,24.0,0.,24.0
1979-08-07 13:50:30.390 ,2,1,0.,24.0,0.,24.0,0.,24.0,0.,24.0
1979-08-07 13:50:54.390 ,2,0,0.,24.0,0.,24.0,0.,24.0,0.,24.0
1979-08-07 13:51:18.390 ,3,1,0.,24.0,0.,24.0,0.,24.0,0.,24.0
1979-08-07 13:51:42.390 ,3,0,0.,24.0,0.,24.0,0.,24.0,0.,24.0
1979-08-07 13:52:06.390 ,4,1,0.,24.0,0.,24.0,0.,24.0,0.,24.0
1979-08-07 13:52:30.390 ,4,0,0.,24.0,0.,24.0,0.,24.0,0.,24.0
1979-08-07 13:54:06.390 ,6,0,0.,24.0,0.,24.0,0.,24.0,0.,24.0
1979-08-07 13:54:30.390 ,7,0,0.,24.0,0.,24.0,0.,24.0,0.,24.0
1979-08-07 13:54:54.390 ,0,0,,0,,0,,0,,0
1979-08-07 14:14:21.390 ,0,0,,0,,0,,0,,0
1979-08-07 14:14:30.390 ,4,1,0.,24.0,0.,24.0,0.,24.0,0.,24.0
1979-08-07 14:14:54.390 ,4,0,0.,24.0,0.,24.0,0.,24.0,0.,24.0
1979-08-07 14:15:18.390 ,5,1,0.,24.0,0.,24.0,0.,24.0,0.,24.0
1979-08-07 14:15:42.390 ,5,0,0.,24.0,0.,24.0,0.,24.0,0.,24.0
1979-08-07 14:16:06.390 ,6,1,0.,24.0,0.,24.0,0.,24.0,0.,24.0
1979-08-07 14:16:30.390 ,6,0,1.,24.0,0.,24.0,0.,24.0,0.,24.0
1979-08-07 14:16:54.390 ,7,1,0.,24.0,0.,24.0,0.,24.0,0.,24.0
1979-08-07 14:17:18.390 ,7,0,0.,24.0,0.,24.0,0.,24.0,0.,24.0
1979-08-07 14:17:42.390 ,7,1,0.,24.0,0.,24.0,0.,24.0,0.,24.0
1979-08-07 14:18:06.390 ,7,0,0.,24.0,0.,24.0,0.,24.0,0.,24.0
1979-08-07 14:18:30.390 ,6,1,0.,24.0,0.,24.0,0.,24.0,0.,24.0
1979-08-07 14:18:54.390 ,6,0,0.,24.0,0.,24.0,0.,24.0,0.,24.0
1979-08-07 14:19:18.390 ,5,1,0.,24.0,0.,24.0,0.,24.0,0.,24.0
1979-08-07 14:19:42.390 ,5,0,0.,24.0,0.,24.0,0.,24.0,0.,24.0
1979-08-07 14:20:06.390 ,4,1,0.,24.0,0.,24.0,0.,24.0,0.,24.0
1979-08-07 14:20:30.390 ,4,0,0.,24.0,0.,24.0,0.,24.0,0.,24.0
1979-08-07 14:20:54.390 ,3,1,0.,24.0,0.,24.0,0.,24.0,0.,24.0
1979-08-07 14:21:18.390 ,3,0,0.,24.0,0.,24.0,0.,24.0,0.,24.0
1979-08-07 14:21:42.390 ,2,1,1.,24.0,0.,24.0,0.,24.0,0.,24.0
1979-08-07 14:22:06.390 ,2,0,0.,24.0,0.,24.0,0.,24.0,0.,24.0
1979-08-07 14:22:30.390 ,1,1,0.,24.0,0.,24.0,0.,24.0,0.,24.0
1979-08-07 14:22:54.390 ,1,0,0.,24.0,0.,24.0,0.,24.0,0.,24.0
1979-08-07 14:23:18.390 ,0,1,0.,24.0,0.,24.0,0.,24.0,0.,24.0
1979-08-07 14:23:42.390 ,0,0,0.,24.0,0.,24.0,0.,24.0,0.,24.0
1979-08-07 14:24:06.390 ,0,1,0.,24.0,0.,24.0,0.,24.0,0.,24.0
1979-08-07 14:24:30.390 ,0,0,0.,24.0,0.,24.0,0.,24.0,0.,24.0
1979-08-07 14:24:54.390 ,1,1,0.,24.0,0.,24.0,0.,24.0,0.,24.0
1979-08-07 14:25:18.390 ,1,0,0.,24.0,0.,24.0,0.,24.0,0.,24.0
1979-08-07 14:25:42.390 ,2,1,0.,24.0,0.,24.0,0.,24.0,0.,24.0
1979-08-07 14:26:06.390 ,2,0,0.,24.0,0.,24.0,0.,24.0,0.,24.0
1979-08-07 14:26:30.390 ,3,1,0.,24.0,0.,24.0,0.,24.0,0.,24.0
1979-08-07 14:26:54.390 ,3,0,0.,24.0,0.,24.0,0.,24.0,0.,24.0
1979-08-07 14:27:18.390 ,4,1,0.,24.0,0.,24.0,0.,24.0,0.,24.0
1979-08-07 14:27:42.390 ,4,0,0.,24.0,0.,24.0,0.,24.0,0.,24.0
1979-08-07 14:28:54.390 ,0,0,0.,24.0,0.,24.0,0.,24.0,0.,24.0
1979-08-07 14:29:18.390 ,0,0,0.,24.0,0.,24.0,0.,24.0,0.,24.0
1979-08-07 14:29:42.390 ,7,1,0.,24.0,0.,24.0,0.,24.0,0.,24.0
1979-08-07 14:30:06.390 ,7,0,0.,24.0,0.,24.0,0.,24.0,0.,24.0
1979-08-07 14:30:30.390 ,7,1,0.,24.0,0.,24.0,0.,24.0,0.,24.0
1979-08-07 14:30:54.390 ,7,0,1.,24.0,0.,24.0,0.,24.0,0.,24.0
1979-08-07 14:31:18.390 ,6,1,0.,24.0,0.,24.0,0.,24.0,0.,24.0
1979-08-07 14:31:42.390 ,6,0,0.,24.0,0.,24.0,0.,24.0,0.,24.0
1979-08-07 14:32:06.390 ,5,1,0.,24.0,0.,24.0,0.,24.0,0.,24.0
1979-08-07 14:32:30.390 ,5,0,0.,24.0,0.,24.0,0.,24.0,0.,24.0
1979-08-07 14:32:54.390 ,4,1,0.,24.0,0.,24.0,0.,24.0,0.,24.0
1979-08-07 14:33:18.390 ,4,0,0.,24.0,0.,24.0,0.,24.0,0.,24.0
1979-08-07 14:33:42.390 ,3,1,0.,24.0,0.,24.0,0.,24.0,0.,24.0
1979-08-07 14:34:06.390 ,3,0,0.,24.0,0.,24.0,0.,24.0,0.,24.0
1979-08-07 14:34:30.390 ,2,1,0.,24.0,0.,24.0,0.,24.0,0.,24.0
1979-08-07 14:34:54.390 ,2,0,0.,24.0,0.,24.0,0.,24.0,0.,24.0
1979-08-07 14:35:18.390 ,1,1,0.,24.0,0.,24.0,0.,24.0,0.,24.0
1979-08-07 14:35:42.390 ,1,0,0.,24.0,0.,24.0,0.,24.0,0.,24.0
1979-08-07 14:36:06.390 ,0,0,0.,24.0,0.,24.0,0.,24.0,0.,24.0
1979-08-07 14:36:30.390 ,0,0,1.,24.0,0.,24.0,0.,24.0,0.,24.0
1979-08-07 14:36:54.390 ,0,1,0.,24.0,0.,24.0,0.,24.0,0.,24.0
1979-08-07 14:37:18.390 ,0,0,0.,24.0,0.,24.0,0.,24.0,0.,24.0
1979-08-07 14:37:42.390 ,1,1,0.,24.0,0.,24.0,0.,24.0,0.,24.0
1979-08-07 14:38:06.390 ,1,0,0.,24.0,0.,24.0,0.,24.0,0.,24.0
1979-08-07 14:38:30.390 ,2,1,0.,24.0,0.,24.0,0.,24.0,0.,24.0
1979-08-07 14:38:54.390 ,2,0,0.,24.0,0.,24.0,0.,24.0,0.,24.0
1979-08-07 14:39:18.390 ,3,1,0.,24.0,0.,24.0,0.,24.0,0.,24.0
1979-08-07 14:39:42.390 ,3,0,0.,24.0,0.,24.0,0.,24.0,0.,24.0
1979-08-07 14:40:06.390 ,4,1,0.,24.0,0.,24.0,0.,24.0,0.,24.0
1979-08-07 14:40:30.390 ,4,0,0.,24.0,0.,24.0,0.,24.0,0.,24.0
1979-08-07 14:40:54.390 ,5,1,0.,24.0,0.,24.0,0.,24.0,0.,24.0
1979-08-07 14:41:18.390 ,5,0,0.,24.0,0.,24.0,0.,24.0,0.,24.0
1979-08-07 14:41:42.390 ,6,1,0.,24.0,0.,24.0,0.,24.0,0.,24.0
1979-08-07 14:42:06.390 ,6,0,0.,24.0,0.,24.0,0.,24.0,0.,24.0
1979-08-07 14:42:30.390 ,7,0,0.,24.0,0.,24.0,0.,24.0,0.,24.0
1979-08-07 14:42:54.390 ,7,0,0.,24.0,0.,24.0,0.,24.0,0.,24.0
1979-08-07 14:43:18.390 ,5,1,0.,24.0,0.,24.0,0.,24.0,0.,24.0
1979-08-07 14:43:42.390 ,1,1,0.,24.0,0.,24.0,0.,24.0,0.,24.0
1979-08-07 14:44:06.390 ,2,1,0.,24.0,0.,24.0,0.,24.0,0.,24.0
1979-08-07 14:44:30.390 ,6,1,0.,24.0,0.,24.0,0.,24.0,0.,24.0
1979-08-07 14:44:54.390 ,5,1,0.,24.0,0.,24.0,0.,24.0,0.,24.0
1979-08-07 14:45:18.390 ,1,1,0.,24.0,0.,24.0,0.,24.0,0.,24.0
1979-08-07 14:45:42.390 ,2,1,0.,24.0,0.,24.0,0.,24.0,0.,24.0
1979-08-07 14:46:06.390 ,6,1,0.,24.0,0.,24.0,0.,24.0,0.,24.0
1979-08-07 14:46:30.390 ,5,1,0.,24.0,0.,24.0,0.,24.0,0.,24.0
1979-08-07 14:46:54.390 ,1,1,0.,24.0,0.,24.0,0.,24.0,0.,24.0
1979-08-07 14:47:18.390 ,2,1,0.,24.0,0.,24.0,0.,24.0,0.,24.0
1979-08-07 14:47:42.390 ,6,1,0.,24.0,0.,24.0,0.,24.0,0.,24.0
1979-08-07 14:48:54.380 ,0,0,0.,24.0,0.,24.0,0.,24.0,0.,24.0
1979-08-07 14:49:18.380 ,6,1,0.,24.0,0.,24.0,0.,24.0,0.,24.0
1979-08-07 14:49:42.380 ,5,1,0.,24.0,0.,24.0,0.,24.0,0.,24.0
1979-08-07 14:50:06.380 ,1,1,0.,24.0,0.,24.0,0.,24.0,0.,24.0
1979-08-07 14:50:30.380 ,2,1,1.,24.0,0.,24.0,0.,24.0,0.,24.0
1979-08-07 14:50:54.380 ,6,1,0.,24.0,0.,24.0,0.,24.0,0.,24.0
1979-08-07 14:51:18.380 ,5,1,0.,24.0,0.,24.0,0.,24.0,0.,24.0
1979-08-07 14:51:42.380 ,1,1,0.,24.0,0.,24.0,0.,24.0,0.,24.0
1979-08-07 14:52:06.380 ,2,1,0.,24.0,0.,24.0,0.,24.0,0.,24.0
1979-08-07 14:52:30.380 ,6,1,0.,24.0,0.,24.0,0.,24.0,0.,24.0
1979-08-07 14:52:54.380 ,5,1,0.,24.0,0.,24.0,0.,24.0,0.,24.0
1979-08-07 14:53:18.380 ,1,1,0.,24.0,0.,24.0,0.,24.0,0.,24.0
1979-08-07 14:53:42.380 ,0,0,0.,24.0,0.,24.0,0.,24.0,0.,24.0
1979-08-07 14:54:06.380 ,0,0,0.,24.0,0.,24.0,0.,24.0,0.,24.0
1979-08-07 14:54:30.380 ,5,1,0.,24.0,0.,24.0,0.,24.0,0.,24.0
1979-08-07 14:54:54.380 ,5,0,0.,24.0,0.,24.0,0.,24.0,0.,24.0
1979-08-07 14:55:18.380 ,4,1,0.,24.0,0.,24.0,0.,24.0,0.,24.0
1979-08-07 14:55:42.380 ,4,0,0.,24.0,0.,24.0,0.,24.0,0.,24.0
1979-08-07 14:56:06.380 ,3,1,0.,24.0,0.,24.0,0.,24.0,0.,24.0
1979-08-07 14:56:30.380 ,3,0,0.,24.0,0.,24.0,0.,24.0,0.,24.0
1979-08-07 14:56:54.380 ,2,1,0.,24.0,0.,24.0,0.,24.0,0.,24.0
1979-08-07 14:57:18.380 ,2,0,0.,24.0,0.,24.0,0.,24.0,0.,24.0
1979-08-07 14:57:42.380 ,1,1,0.,24.0,0.,24.0,0.,24.0,0.,24.0
1979-08-07 14:58:06.380 ,1,0,0.,24.0,0.,24.0,0.,24.0,0.,24.0
1979-08-07 14:58:30.380 ,0,1,0.,24.0,0.,24.0,0.,24.0,0.,24.0
1979-08-07 14:58:54.380 ,0,0,0.,24.0,0.,24.0,0.,24.0,0.,24.0
1979-08-07 14:59:18.380 ,0,1,0.,24.0,0.,24.0,0.,24.0,0.,24.0
1979-08-07 14:59:42.380 ,0,0,0.,24.0,0.,24.0,0.,24.0,0.,24.0
1979-08-07 15:00:06.380 ,1,1,0.,24.0,0.,24.0,0.,24.0,0.,24.0
